Location: Long Island Community Building
(39.9491°N, 99.5338°W)
Time: 11:25:53
(UTC+00:00)

Cosmos 1703 Rocket - Pass Details

Date: 06 December 2019
Orbit: 604 x 635 km, 82.5° (Epoch: 23 January)

Event Time Altitude Azimuth Distance (km) Brightness Sun altitude
Exits shadow 12:51:44 - 343° (NNW) 2,949 6.7 -10.1°
Rises 12:51:47 0° 343° (NNW) 2,931 6.7 -10.1°
Reaches altitude 10° 12:54:09 10° 335° (NNW) 2,015 5.8 -9.7°
Maximum altitude 12:58:14 36° 269° (W) 993 4.2 -9.0°
Drops below altitude 10° 13:02:16 10° 203° (SSW) 1,985 6.2 -8.2°
Sets 13:04:36 0° 194° (SSW) 2,881 7.1 -7.8°
